Regional Weather Roundup
Issued by NWS

Home | Current Version | Previous Version | Graphics & Text | Print | Product List | Glossary On
Versions: 1 2 3 4 5 6 7 8 9 10 11 12 13 14 15 16 17 18 19 20 21 22 23 24 25 26 27 28 29 30 31 32 33 34 35 36 37 38 39 40 41 42 43 44 45 46 47 48 49 50
000
ASUS43 KMKX 280611
RWRWI

WISCONSIN REGIONAL WEATHER ROUNDUP
NATIONAL WEATHER SERVICE MILWAUKEE/SULLIVAN WI
100 AM CDT FRI JUL 28 2017

NOTE: "FAIR" INDICATES FEW OR NO CLOUDS BELOW 12,000 FEET WITH NO
SIGNIFICANT WEATHER AND/OR OBSTRUCTIONS TO VISIBILITY.

WIZ001-002-006>008-014>016-023>028-280700-
NORTHWEST WISCONSIN

CITY           SKY/WX    TMP DP  RH WIND       PRES   REMARKS
SUPERIOR ARPT  NOT AVBL
ASHLAND        FOG       54  54 100 CALM      30.09S VSB 1/2
6HR MIN TEMP:  52; 6HR MAX TEMP:  72;

HAYWARD        CLEAR     57  55  93 NE5       30.09R
6HR MIN TEMP:  57; 6HR MAX TEMP:  77;

SIREN          CLEAR     62  59  90 CALM      30.08S
6HR MIN TEMP:  59; 6HR MAX TEMP:  80;

CUMBERLAND     CLEAR     59  57  94 N5        30.08R
RICE LAKE      CLEAR     60  58  93 CALM      30.08R
6HR MIN TEMP:  60; 6HR MAX TEMP:  79;

CHETEK         CLEAR     65  59  79 NE5       30.07R
6HR MIN TEMP:  65; 6HR MAX TEMP:  80;

LADYSMITH      CLEAR     63  60  88 NE3       30.09S
6HR MIN TEMP:  63; 6HR MAX TEMP:  80;

EAU CLAIRE     CLEAR     65  60  84 NE5       30.03R
6HR MIN TEMP:  64; 6HR MAX TEMP:  81;

MENOMONIE      CLEAR     66  60  79 CALM      30.05R
6HR MIN TEMP:  66; 6HR MAX TEMP:  81;

NEW RICHMOND   CLEAR     63  60  90 NE3       30.06R
6HR MIN TEMP:  62; 6HR MAX TEMP:  79;

OSCEOLA        CLEAR     64  64 100 CALM      30.08R
6HR MIN TEMP:  62; 6HR MAX TEMP:  81;

$$

WIZ003>005-009-010-017-018-280700-
NORTH CENTRAL WISCONSIN

CITY           SKY/WX    TMP DP  RH WIND       PRES   REMARKS
MANITOWISH WTR PTCLDY    53  53 100 CALM      30.11S FOG
6HR MIN TEMP:  53; 6HR MAX TEMP:  74;

ARBOR VITAE    CLEAR     57  55  94 CALM      30.10S
6HR MIN TEMP:  57; 6HR MAX TEMP:  77;

WOODRUFF       CLEAR     57  55  94 CALM      30.10S
6HR MIN TEMP:  57; 6HR MAX TEMP:  77;

RHINELANDER    CLEAR     55  54  96 CALM      30.10S
6HR MIN TEMP:  54; 6HR MAX TEMP:  75; 6HR PCP: TRACE;

EAGLE RIVER    CLEAR     51  51 100 CALM      30.10S
6HR MIN TEMP:  51; 6HR MAX TEMP:  74;

LAND O LAKES   FOG       50  50 100 CALM      30.12S VSB 1/4
6HR MIN TEMP:  50; 6HR MAX TEMP:  73;

PHILLIPS       CLEAR     57  57 100 CALM      30.09S
6HR MIN TEMP:  57; 6HR MAX TEMP:  76;

TOMAHAWK         N/A     53  52  95 CALM      30.10S
6HR MIN TEMP:  53; 6HR MAX TEMP:  76;

MEDFORD        CLEAR     58  57  95 E3        30.08R
6HR MIN TEMP:  58; 6HR MAX TEMP:  77;

MERRILL        CLEAR     57  57 100 CALM      30.09R
$$

WIZ029-030-035-036-043>047-280700-
CENTRAL WISCONSIN

CITY           SKY/WX    TMP DP  RH WIND       PRES   REMARKS
WAUSAU         CLEAR     62  60  93 CALM      30.06R
6HR MIN TEMP:  62; 6HR MAX TEMP:  76; 6HR PCP: TRACE;

MOSINEE        MOCLDY    61  59  94 E5        30.07S
MARSHFIELD     PTCLDY    65  60  84 E7        30.06R
6HR MIN TEMP:  64; 6HR MAX TEMP:  81; 6HR PCP:  0.20;

STEVENS POINT  PTCLDY    62  57  83 NE6       30.06S
6HR MIN TEMP:  62; 6HR MAX TEMP:  76;

WAUPACA        LGT RAIN  67  59  73 NE5       30.06S
6HR MIN TEMP:  67; 6HR MAX TEMP:  80;

WAUTOMA        MOCLDY    64  60  87 NE6       30.04S
6HR MIN TEMP:  61; 6HR MAX TEMP:  78;

WISC RAPIDS    CLOUDY    68  59  73 E7        30.06S
6HR MIN TEMP:  64; 6HR MAX TEMP:  81; 6HR PCP: TRACE;

CAMP DOUGLAS   CLOUDY    65  65 100 E5        30.02S
6HR MIN TEMP:  61; 6HR MAX TEMP:  79;

$$

WIZ011>013-019>022-031-037>040-048>050-280700-
NORTHEAST WISCONSIN

CITY           SKY/WX    TMP DP  RH WIND       PRES   REMARKS
ANTIGO         CLEAR     57  56  96 CALM      30.10R
6HR MIN TEMP:  57; 6HR MAX TEMP:  74;

SHAWANO        PTCLDY    67  55  64 N7        30.06R
6HR MIN TEMP:  67; 6HR MAX TEMP:  77;

OCONTO         CLEAR     60  53  78 CALM      30.05R
6HR MIN TEMP:  60; 6HR MAX TEMP:  73;

STURGEON BAY     N/A     61  55  81 CALM      30.05R
6HR MIN TEMP:  61; 6HR MAX TEMP:  73;

GREEN BAY      CLOUDY    65  61  87 N5        30.04R
6HR MIN TEMP:  63; 6HR MAX TEMP:  75;

MANITOWOC      PTCLDY    63  57  81 N3        30.03S
6HR MIN TEMP:  63; 6HR MAX TEMP:  72;

APPLETON       CLOUDY    64  54  68 N3        30.03S
CLINTONVILLE   CLOUDY   N/A N/A N/A CALM      30.06R
OSHKOSH        MOCLDY    68  55  63 NE8       30.03S
6HR MIN TEMP:  68; 6HR MAX TEMP:  77;

$$

WIZ032>034-041-042-053>061-280700-
SOUTHWEST WISCONSIN

CITY           SKY/WX    TMP DP  RH WIND       PRES   REMARKS
LA CROSSE      CLEAR     70  65  84 CALM      30.01S
6HR MIN TEMP:  69; 6HR MAX TEMP:  84;

SPARTA         CLEAR     60  60  99 CALM      30.03S
6HR MIN TEMP:  60; 6HR MAX TEMP:  79;

VIROQUA        MOCLDY    66  64  91 SE5       30.04S
6HR MIN TEMP:  65; 6HR MAX TEMP:  78;

BOSCOBEL       PTCLDY    64  62  93 CALM      30.02S FOG
6HR MIN TEMP:  63; 6HR MAX TEMP:  84;

PRAIRIE DU CHI MOCLDY    68  65  91 CALM      30.01S
6HR MIN TEMP:  68; 6HR MAX TEMP:  81;

PLATTEVILLE    CLEAR     65  64  94 E5        30.03S
6HR MIN TEMP:  65; 6HR MAX TEMP:  80;

$$

WIZ056-057-062-063-064-067-068-280700-
SOUTH CENTRAL WISCONSIN

CITY           SKY/WX    TMP DP  RH WIND       PRES   REMARKS
REEDSBURG      CLEAR     63  63 100 CALM      30.03R
6HR MIN TEMP:  63; 6HR MAX TEMP:  77;

BARABOO/DELLS  PTCLDY    63  60  91 CALM      30.03S
6HR MIN TEMP:  62; 6HR MAX TEMP:  77;

LONE ROCK      MOCLDY    64  63  96 CALM      30.01F
6HR MIN TEMP:  63; 6HR MAX TEMP:  80;

MINERAL POINT  CLEAR     66  61  82 E3        30.03S
MADISON        PTCLDY    63  57  81 N3        30.01S
6HR MIN TEMP:  63; 6HR MAX TEMP:  78;

MIDDLETON      PTCLDY    61  61 100 CALM      30.03S
6HR MIN TEMP:  61; 6HR MAX TEMP:  79;

WATERTOWN      CLEAR     62  58  86 NE3       30.01S
6HR MIN TEMP:  62; 6HR MAX TEMP:  76;

MONROE         CLEAR     64  55  72 NE7       30.01S
JANESVILLE     CLEAR     66  55  68 NE5       29.99S
$$

WIZ051-052-058>065-066-070>072-280700-
SOUTHEAST WISCONSIN

CITY           SKY/WX    TMP DP  RH WIND       PRES   REMARKS
MILWAUKEE      PTCLDY    69  62  78 N14       29.99R
6HR MIN TEMP:  68; 6HR MAX TEMP:  74;

WAUKESHA       CLEAR     61  54  77 NE7       30.01F
MILWAUKEE/TIMM CLEAR     64  54  68 N7        30.01S
RACINE         MOCLDY    68  63  84 N13       30.00R
6HR MIN TEMP:  68; 6HR MAX TEMP:  72;

KENOSHA        PTCLDY    67  61  81 N9        29.98S
6HR MIN TEMP:  67; 6HR MAX TEMP:  74;

FOND DU LAC    CLEAR     67  53  61 NE12      30.02S
6HR MIN TEMP:  66; 6HR MAX TEMP:  77;

SHEBOYGAN      CLEAR     63  60  90 N7        30.01F
6HR MIN TEMP:  62; 6HR MAX TEMP:  73;

WEST BEND      CLEAR     61  57  88 NE3       30.01F
JUNEAU         CLEAR     62  56  80 CALM      30.03S
6HR MIN TEMP:  62; 6HR MAX TEMP:  74;

$$

LSZ147-162-280700-
LAKE SUPERIOR

STATION/POSITION TIME  TEMP    WIND        PRES    WAVE
                       AIR SEA DIR/SP/G            HT/PER
                 (UTC) (F)     (DEG/KT/KT) (MB)    (FT/S)
W MID LAKE BUOY  0550   60 54   40/  4/  4 1018.5R   0
DEVILS ISLAND    0600   63      40/  5/  5 1018.7R
SAXON HARBOR     0540   60     190/  3/  5 1018.3S
$$

LMZ867-665-643>646-280700-
LAKE MICHIGAN

STATION/POSITION TIME  TEMP    WIND        PRES    WAVE
                       AIR SEA DIR/SP/G            HT/PER
                 (UTC) (F)     (DEG/KT/KT) (MB)    (FT/S)
CHAMBERS ISLAND  0540   66     360/  9/ 10 1016.6S
S GREEN BAY BUOY 0600   67 72  360/ 14/ 17 1017.2
N MID LAKE BUOY  0550   64 66  360/ 10/ 12 1017.6R   2/ 4
NORTHPORT PIER   0540



USA.gov is the U.S. government's official web portal to all federal, state and local government web resources and services.